User: anonymous   Login
Location: Unspecified
(0.0000°N, 0.0000°E)
Time: 23:19:43
(UTC+00:00)
Language:

AISAT - Orbit

View from above orbital plane
View from above orbital plane
View from above satellite
View from above satellite

Ground track
Ground track

The orbit data is extracted from the following two-line orbital elements,

1 40054U 14034B   17141.86059100 +.00000538 +00000-0 +83824-4 0  9993
2 40054 098.1873 241.0824 0014303 127.2150 233.0367 14.77055743155830
Epoch (UTC): 21 May 2017 20:39:15
Eccentricity: 0.0014303
inclination: 98.1873°
perigee height: 628 km
apogee height: 648 km
right ascension of ascending node: 241.0824°
argument of perigee: 127.2150°
revolutions per day: 14.77055743
mean anomaly at epoch: 233.0367°
orbit number at epoch: 15583

The dashed part of the orbit path shows where the satellite is in the earth's shadow,  

DLR